STARLINK-37664, 69044

Orbit data source: Space-Track

STARLINK-37664, 69044 is a payload satellite owned by SpaceX/Seattle (US) in SSO that was launched on Wed, 06 May 2026 UTC via an FALCON 9 launch vehicle from the Air Force Western Test Range (AFWTR). Payload-class satellites include a variety of spacecraft equipped with specific instruments for various scientific and technological missions. These include communications satellites like Starlink; space stations such as the ISS; scientific satellites like the Hubble; Earth observation satellites from companies like Planet Labs, Umbra, and HawkEye 360; GPS; miniature CubeSats for education and research; and military/defense satellites.

Loading next visibility...
Identifier
69044, 2026-101V
Orbit
SSO
Country
Flag of USUS
Related business
Manufacturer
SpaceX/Seattle
Mission
Operational Commercial Communications
Bus & Motor
STARLINK V2MO, Unknown motor
Mass
575 kg wet, ~530 kg dry
Launch date (UTC)
2026-05-06 (2 months ago)
Launch vehicle
FALCON 9
Launch site
Air Force Western Test Range (AFWTR)
Object type
Payload
Rocket body
Debris
Shape & HBR
Box + 2 Pan, 17.7 m
Radar Cross Section
36.964 m², Large (>1 m²)

Expand to show TLE details & history
Last TLE update: 9 hours ago

TLE from 9 hours ago
0 STARLINK-37664
1 69044U 26101V   26192.98523146  .00012627  00000-0  39275-3 0  9998
2 69044  97.2862  47.4871 0001101  85.4743 274.6625 15.33449484 10372
Epoch: 2026-07-11T23:38Z
TLE epoch observation values (Epoch: 2026-07-11T23:38:43.998Z)
Latitude
-0.00005°
Longitude
122.91318°
Altitude
468.581 km
Speed
7.632 km/s
True Right ascension
03h 09m 56s
True Declination
0° 00' 00"
Sunlit
Object was in daylight at epoch
Visualization orbit readout
Latitude
Unknown
Longitude
Unknown
Altitude
Unknown
Speed
Unknown
Apparent Right ascension
Unknown
Apparent Declination
Unknown
Sunlit
N/A
Visualization observer readout
Local Sidereal Time
21:07:39
Azimuth
Unknown
Elevation
Unknown
Doppler factor
Unknown
Orbital elements
Apogee altitude
463.226 km
Perigee altitude
461.719 km
Semi-major axis
6,840.61 km
Eccentricity
0.00011
Inclination
97.2862°
RAAN
47.4871°
Arg. of periapsis
85.4743°
True anomaly
274.64993°
Mean anomaly
274.6625°
Eccentric anomaly
274.65621°
Mean motion
3.8362 °/min
Orbital period
93.84 mins
BSTAR
0.00039275
Loading maneuver chart data...
Computing Atmospheric mass density...
Loading historical data...
Loading historical data...
Loading historical data...
Loading historical data...
Loading historical data...
Loading historical data...
Loading historical data...

Documentation

Showing up to 5 results
|